Regional Weather Roundup
Issued by NWS

Home | Current Version | Previous Version | Text Only | Print | Product List | Glossary Off
Versions: 1 2 3 4 5 6 7 8 9 10 11 12 13 14 15 16 17 18 19 20 21 22 23 24 25 26 27 28 29 30 31 32 33 34 35 36 37 38 39 40 41 42 43 44 45 46 47 48 49 50

000
ASUS43 KFSD 181902
RWRSD

WEATHER ROUNDUP FOR SOUTH DAKOTA
NATIONAL WEATHER SERVICE SIOUX FALLS SD
100 PM CST WED JAN 18 2017

NOTE: "FAIR" INDICATES FEW OR NO CLOUDS BELOW 12,000 FEET WITH NO
SIGNIFICANT WEATHER AND/OR OBSTRUCTIONS TO VISIBILITY.


SDZ001>005-009-010-012>017-182000-
NORTHWEST AND NORTH CENTRAL SOUTH DAKOTA

CITY           SKY/WX    TMP DP  RH WIND       PRES   REMARKS
BUFFALO          N/A     35  22  58 W6        29.63F
FAITH            N/A     38  24  57 CALM      29.71F
MOBRIDGE       CLOUDY    26  18  71 SE6       29.71F WCI  19
$$

SDZ012>016-024>037-041>051-057-063-072>074-182000-
SOUTHWEST AND SOUTH CENTRAL SOUTH DAKOTA

CITY           SKY/WX    TMP DP  RH WIND       PRES   REMARKS
RAPID CTY ARPT CLOUDY    34  26  72 SW6       29.71F WCI  29
PIERRE         CLOUDY    28  20  71 SE5       29.77F WCI  23
CUSTER         SUNNY     56  18  22 W7        29.77F
ELLSWORTH AFB  SUNNY     39  30  70 CALM      29.70F
PHILIP         CLOUDY    36  26  67 S6        29.75F
PINE RIDGE     CLOUDY    41  23  48 W8        29.78F
SPEARFISH      FAIR      50  28  43 CALM      29.72F
WINNER         FAIR      49  25  39 SW9       29.77F
$$

SDZ004>011-016>023-039-040-182000-
NORTHEAST SOUTH DAKOTA

CITY           SKY/WX    TMP DP  RH WIND       PRES   REMARKS
ABERDEEN       CLOUDY    28  19  69 S10       29.77F WCI  19
WATERTOWN      CLOUDY    29  24  82 S10       29.79S WCI  20
BROOKINGS      SUNNY     36  28  73 S6        29.82S
SISSETON         N/A     43  28  55 SW6       29.72F
$$

SDZ017-020-022-023-036>040-048>070-182000-
SOUTHEAST SOUTH DAKOTA

CITY           SKY/WX    TMP DP  RH WIND       PRES   REMARKS
SIOUX FALLS    MOSUNNY   40  33  76 S12       29.84F
HURON          CLOUDY    36  26  67 S7        29.81F
CHAMBERLAIN    SUNNY     43  28  55 CALM      29.78F
MITCHELL       SUNNY     43  29  57 CALM      29.82F
YANKTON        SUNNY     46  34  61 S7        29.83F
$$

ABBREVIATIONS USED IN REMARKS
   TC - TEMPERATURE IN CELSIUS
  WCI - WIND CHILL INDEX
   HX - HEAT INDEX
  VSB - VISIBILITY




USA.gov is the U.S. government's official web portal to all federal, state and local government web resources and services.